contact:dominique.lefevre@mio.osupytheas.fr, maurice.libes@osupytheas.fr, didier.mallarino@osupytheas.fr
Project:EMSO http://www.emso-fr.org/EMSO-France
Depth: 2436.0 m
Title:EMSO Ligure Ouest : Data MII capteur CSTAR
DateTime,Latitude,Longitude,Instrument_Serial,Reference_Counts,Signal_Counts,Corrected_Signal_raw_counts,Calculated_Beam_c_inverse_meters,Internal_thermistor_counts
DateTime,Latitude,Longitude,Instrument_Serial,Reference_Counts,Signal_Counts,Corrected_Signal_raw_counts,Calculated_Beam_c_inverse_meters,Internal_thermistor_counts
2020-02-13T00:02:18,42.805,6.029,CST-1368DR,6790,9498,15204,0.107,551
2020-02-13T00:05:19,42.805,6.029,CST-1368DR,6790,9508,15220,0.103,551
2020-02-13T00:08:21,42.805,6.029,CST-1368DR,6790,9508,15220,0.103,551
2020-02-13T00:11:22,42.805,6.029,CST-1368DR,6790,9507,15219,0.103,551
2020-02-13T00:14:24,42.805,6.029,CST-1368DR,6790,9501,15209,0.106,551
2020-02-13T00:17:26,42.805,6.029,CST-1368DR,6790,9486,15185,0.112,551
2020-02-13T00:20:27,42.805,6.029,CST-1368DR,6790,9489,15191,0.110,551
2020-02-13T00:23:29,42.805,6.029,CST-1368DR,6790,9503,15213,0.105,551
2020-02-13T00:26:31,42.805,6.029,CST-1368DR,6790,9507,15219,0.103,551
2020-02-13T00:29:32,42.805,6.029,CST-1368DR,6790,9501,15210,0.105,551
2020-02-13T00:32:34,42.805,6.029,CST-1368DR,6790,9498,15204,0.107,551
2020-02-13T00:35:35,42.805,6.029,CST-1368DR,6790,9500,15207,0.106,551
2020-02-13T00:38:37,42.805,6.029,CST-1368DR,6790,9507,15219,0.103,551
2020-02-13T00:41:39,42.805,6.029,CST-1368DR,6790,9500,15207,0.106,551
2020-02-13T00:44:40,42.805,6.029,CST-1368DR,6790,9504,15213,0.105,551
2020-02-13T00:47:42,42.805,6.029,CST-1368DR,6790,9503,15212,0.105,551
2020-02-13T00:50:44,42.805,6.029,CST-1368DR,6790,9491,15193,0.110,551
2020-02-13T00:53:45,42.805,6.029,CST-1368DR,6790,9498,15204,0.107,551
2020-02-13T00:56:47,42.805,6.029,CST-1368DR,6790,9502,15211,0.105,551
2020-02-13T00:59:48,42.805,6.029,CST-1368DR,6790,9500,15207,0.106,551
2020-02-13T01:02:50,42.805,6.029,CST-1368DR,6790,9502,15211,0.105,551
2020-02-13T01:05:52,42.805,6.029,CST-1368DR,6790,9498,15204,0.107,551
2020-02-13T01:08:53,42.805,6.029,CST-1368DR,6790,9499,15206,0.106,551
2020-02-13T01:11:55,42.805,6.029,CST-1368DR,6790,9506,15217,0.104,551
2020-02-13T01:14:56,42.805,6.029,CST-1368DR,6790,9508,15220,0.103,551
2020-02-13T01:17:58,42.805,6.029,CST-1368DR,6790,9501,15209,0.106,551
2020-02-13T01:21:00,42.805,6.029,CST-1368DR,6790,9508,15220,0.103,551
2020-02-13T01:24:01,42.805,6.029,CST-1368DR,6790,9499,15206,0.106,551
2020-02-13T01:27:03,42.805,6.029,CST-1368DR,6790,9502,15211,0.105,551
2020-02-13T01:30:05,42.805,6.029,CST-1368DR,6790,9505,15216,0.104,551
2020-02-13T01:33:06,42.805,6.029,CST-1368DR,6790,9504,15215,0.104,551
2020-02-13T01:36:08,42.805,6.029,CST-1368DR,6790,9498,15204,0.107,551
2020-02-13T01:39:10,42.805,6.029,CST-1368DR,6790,9506,15217,0.104,551
2020-02-13T01:42:11,42.805,6.029,CST-1368DR,6790,9504,15213,0.105,551
2020-02-13T01:45:13,42.805,6.029,CST-1368DR,6790,9498,15204,0.107,551
2020-02-13T01:48:14,42.805,6.029,CST-1368DR,6790,9508,15221,0.102,551
2020-02-13T01:51:16,42.805,6.029,CST-1368DR,6790,9499,15206,0.106,551
2020-02-13T01:54:18,42.805,6.029,CST-1368DR,6790,9507,15219,0.103,551
2020-02-13T01:57:19,42.805,6.029,CST-1368DR,6790,9507,15219,0.103,551
2020-02-13T02:00:21,42.805,6.029,CST-1368DR,6790,9504,15214,0.104,551
2020-02-13T02:03:23,42.805,6.029,CST-1368DR,6790,9502,15211,0.105,551
2020-02-13T02:06:24,42.805,6.029,CST-1368DR,6790,9501,15209,0.106,551
2020-02-13T02:09:26,42.805,6.029,CST-1368DR,6790,9509,15222,0.102,551
2020-02-13T02:12:27,42.805,6.029,CST-1368DR,6790,9492,15195,0.109,551
2020-02-13T02:15:29,42.805,6.029,CST-1368DR,6790,9502,15210,0.105,551
2020-02-13T02:18:31,42.805,6.029,CST-1368DR,6790,9502,15211,0.105,551
2020-02-13T02:21:32,42.805,6.029,CST-1368DR,6790,9508,15220,0.103,551
2020-02-13T02:24:34,42.805,6.029,CST-1368DR,6790,9502,15211,0.105,551
2020-02-13T02:27:36,42.805,6.029,CST-1368DR,6790,9502,15210,0.105,551
2020-02-13T02:30:37,42.805,6.029,CST-1368DR,6790,9506,15218,0.103,550
2020-02-13T02:33:39,42.805,6.029,CST-1368DR,6790,9494,15198,0.109,551
2020-02-13T02:36:41,42.805,6.029,CST-1368DR,6790,9504,15213,0.105,551
2020-02-13T02:39:42,42.805,6.029,CST-1368DR,6790,9501,15209,0.106,551
2020-02-13T02:42:44,42.805,6.029,CST-1368DR,6790,9495,15200,0.108,550
2020-02-13T02:45:45,42.805,6.029,CST-1368DR,6790,9499,15205,0.107,551
2020-02-13T02:48:47,42.805,6.029,CST-1368DR,6790,9502,15210,0.105,551
2020-02-13T02:51:49,42.805,6.029,CST-1368DR,6790,9506,15217,0.104,551
2020-02-13T02:54:50,42.805,6.029,CST-1368DR,6790,9507,15219,0.103,551
2020-02-13T02:57:52,42.805,6.029,CST-1368DR,6790,9495,15199,0.108,551
2020-02-13T03:00:54,42.805,6.029,CST-1368DR,6790,9500,15208,0.106,551
2020-02-13T03:03:56,42.805,6.029,CST-1368DR,6790,9499,15205,0.107,551
2020-02-13T03:06:58,42.805,6.029,CST-1368DR,6790,9507,15219,0.103,551
2020-02-13T03:09:59,42.805,6.029,CST-1368DR,6790,9500,15208,0.106,550
2020-02-13T03:13:01,42.805,6.029,CST-1368DR,6790,9504,15214,0.104,551
2020-02-13T03:16:03,42.805,6.029,CST-1368DR,6790,9494,15198,0.109,551
2020-02-13T03:19:04,42.805,6.029,CST-1368DR,6790,9487,15187,0.111,551
2020-02-13T03:22:06,42.805,6.029,CST-1368DR,6790,9506,15218,0.103,550
2020-02-13T03:25:08,42.805,6.029,CST-1368DR,6790,9497,15203,0.107,551
2020-02-13T03:28:09,42.805,6.029,CST-1368DR,6790,9500,15207,0.106,551
2020-02-13T03:31:11,42.805,6.029,CST-1368DR,6790,9506,15217,0.104,551
2020-02-13T03:34:13,42.805,6.029,CST-1368DR,6790,9506,15217,0.104,551
2020-02-13T03:37:14,42.805,6.029,CST-1368DR,6789,9495,15201,0.108,551
2020-02-13T03:40:16,42.805,6.029,CST-1368DR,6790,9495,15200,0.108,551
2020-02-13T03:43:18,42.805,6.029,CST-1368DR,6790,9496,15201,0.108,551
2020-02-13T03:46:20,42.805,6.029,CST-1368DR,6790,9492,15195,0.109,551
2020-02-13T03:49:21,42.805,6.029,CST-1368DR,6790,9497,15203,0.107,551
2020-02-13T03:52:23,42.805,6.029,CST-1368DR,6790,9506,15218,0.103,550
2020-02-13T03:55:24,42.805,6.029,CST-1368DR,6789,9496,15203,0.107,551
2020-02-13T03:58:26,42.805,6.029,CST-1368DR,6789,9505,15217,0.104,551
2020-02-13T04:01:28,42.805,6.029,CST-1368DR,6789,9506,15219,0.103,551
2020-02-13T04:04:29,42.805,6.029,CST-1368DR,6789,9507,15220,0.103,551
2020-02-13T04:07:31,42.805,6.029,CST-1368DR,6789,9500,15209,0.106,551
2020-02-13T04:10:33,42.805,6.029,CST-1368DR,6789,9494,15200,0.108,551
2020-02-13T04:13:34,42.805,6.029,CST-1368DR,6789,9499,15207,0.106,551
2020-02-13T04:16:36,42.805,6.029,CST-1368DR,6789,9504,15215,0.104,551
2020-02-13T04:19:38,42.805,6.029,CST-1368DR,6789,9500,15209,0.106,551
2020-02-13T04:22:39,42.805,6.029,CST-1368DR,6789,9505,15217,0.104,551
2020-02-13T04:25:41,42.805,6.029,CST-1368DR,6789,9498,15207,0.106,551
2020-02-13T04:28:43,42.805,6.029,CST-1368DR,6789,9506,15219,0.103,551
2020-02-13T04:31:44,42.805,6.029,CST-1368DR,6789,9508,15223,0.102,551
2020-02-13T04:34:46,42.805,6.029,CST-1368DR,6789,9508,15222,0.102,551
2020-02-13T04:37:47,42.805,6.029,CST-1368DR,6789,9503,15214,0.104,551
2020-02-13T04:40:49,42.805,6.029,CST-1368DR,6789,9504,15216,0.104,551
2020-02-13T04:43:51,42.805,6.029,CST-1368DR,6789,9502,15213,0.105,551
2020-02-13T04:46:52,42.805,6.029,CST-1368DR,6789,9505,15217,0.104,551
2020-02-13T04:49:54,42.805,6.029,CST-1368DR,6789,9502,15213,0.105,551
2020-02-13T04:52:56,42.805,6.029,CST-1368DR,6789,9501,15211,0.105,551
2020-02-13T04:55:57,42.805,6.029,CST-1368DR,6789,9504,15217,0.104,551
2020-02-13T04:58:59,42.805,6.029,CST-1368DR,6789,9505,15218,0.103,551
2020-02-13T05:02:00,42.805,6.029,CST-1368DR,6789,9508,15222,0.102,551
2020-02-13T05:05:02,42.805,6.029,CST-1368DR,6789,9507,15221,0.102,551
2020-02-13T05:08:04,42.805,6.029,CST-1368DR,6789,9499,15207,0.106,551
2020-02-13T05:11:05,42.805,6.029,CST-1368DR,6789,9505,15218,0.103,551
2020-02-13T05:14:07,42.805,6.029,CST-1368DR,6789,9495,15202,0.107,551
2020-02-13T05:17:08,42.805,6.029,CST-1368DR,6789,9502,15213,0.105,551
2020-02-13T05:20:10,42.805,6.029,CST-1368DR,6789,9503,15215,0.104,551
2020-02-13T05:23:12,42.805,6.029,CST-1368DR,6789,9509,15224,0.102,551
2020-02-13T05:26:13,42.805,6.029,CST-1368DR,6789,9504,15216,0.104,551
2020-02-13T05:29:15,42.805,6.029,CST-1368DR,6789,9508,15222,0.102,551
2020-02-13T05:32:17,42.805,6.029,CST-1368DR,6789,9497,15205,0.107,551
2020-02-13T05:35:18,42.805,6.029,CST-1368DR,6789,9504,15216,0.104,550
2020-02-13T05:38:20,42.805,6.029,CST-1368DR,6789,9503,15214,0.104,550
2020-02-13T05:41:21,42.805,6.029,CST-1368DR,6789,9501,15211,0.105,551
2020-02-13T05:44:23,42.805,6.029,CST-1368DR,6789,9506,15219,0.103,551
2020-02-13T05:47:25,42.805,6.029,CST-1368DR,6789,9506,15219,0.103,551
2020-02-13T05:50:26,42.805,6.029,CST-1368DR,6789,9509,15224,0.102,551
2020-02-13T05:53:28,42.805,6.029,CST-1368DR,6789,9506,15220,0.103,551
2020-02-13T05:56:30,42.805,6.029,CST-1368DR,6789,9502,15213,0.105,551
2020-02-13T05:59:31,42.805,6.029,CST-1368DR,6789,9498,15207,0.106,551
2020-02-13T06:02:33,42.805,6.029,CST-1368DR,6789,9503,15214,0.104,551
2020-02-13T06:05:35,42.805,6.029,CST-1368DR,6789,9503,15215,0.104,551
2020-02-13T06:08:36,42.805,6.029,CST-1368DR,6789,9500,15209,0.106,550
2020-02-13T06:11:38,42.805,6.029,CST-1368DR,6789,9494,15201,0.108,551
2020-02-13T06:14:40,42.805,6.029,CST-1368DR,6789,9502,15212,0.105,551
2020-02-13T06:17:41,42.805,6.029,CST-1368DR,6789,9504,15216,0.104,551
2020-02-13T06:20:43,42.805,6.029,CST-1368DR,6789,9494,15201,0.108,551
2020-02-13T06:23:45,42.805,6.029,CST-1368DR,6789,9509,15225,0.101,551
2020-02-13T06:26:46,42.805,6.029,CST-1368DR,6789,9504,15215,0.104,550
2020-02-13T06:29:48,42.805,6.029,CST-1368DR,6789,9502,15213,0.105,551
2020-02-13T06:32:49,42.805,6.029,CST-1368DR,6789,9503,15215,0.104,550
2020-02-13T06:35:51,42.805,6.029,CST-1368DR,6789,9499,15207,0.106,551
2020-02-13T06:38:53,42.805,6.029,CST-1368DR,6789,9501,15211,0.105,551
2020-02-13T06:41:54,42.805,6.029,CST-1368DR,6789,9497,15205,0.107,551
2020-02-13T06:44:56,42.805,6.029,CST-1368DR,6789,9492,15197,0.109,551
2020-02-13T06:47:58,42.805,6.029,CST-1368DR,6789,9486,15187,0.111,551
2020-02-13T06:50:59,42.805,6.029,CST-1368DR,6789,9504,15216,0.104,551
2020-02-13T06:54:01,42.805,6.029,CST-1368DR,6789,9491,15196,0.109,551
2020-02-13T06:57:02,42.805,6.029,CST-1368DR,6789,9493,15199,0.108,551
2020-02-13T07:00:04,42.805,6.029,CST-1368DR,6789,9508,15222,0.102,551
2020-02-13T07:03:06,42.805,6.029,CST-1368DR,6789,9505,15217,0.104,551
2020-02-13T07:06:07,42.805,6.029,CST-1368DR,6789,9499,15207,0.106,551
2020-02-13T07:09:09,42.805,6.029,CST-1368DR,6789,9498,15207,0.106,551
2020-02-13T07:12:11,42.805,6.029,CST-1368DR,6789,9498,15206,0.106,551
2020-02-13T07:15:12,42.805,6.029,CST-1368DR,6789,9504,15216,0.104,551
2020-02-13T07:18:14,42.805,6.029,CST-1368DR,6789,9500,15209,0.106,551
2020-02-13T07:21:15,42.805,6.029,CST-1368DR,6788,9478,15176,0.114,550
2020-02-13T07:24:17,42.805,6.029,CST-1368DR,6789,9502,15213,0.105,551
2020-02-13T07:27:19,42.805,6.029,CST-1368DR,6789,9496,15204,0.107,551
2020-02-13T07:30:20,42.805,6.029,CST-1368DR,6789,9506,15219,0.103,551
2020-02-13T07:33:22,42.805,6.029,CST-1368DR,6789,9507,15220,0.103,551
2020-02-13T07:36:24,42.805,6.029,CST-1368DR,6789,9501,15211,0.105,551
2020-02-13T07:39:25,42.805,6.029,CST-1368DR,6789,9507,15221,0.102,551
2020-02-13T07:42:27,42.805,6.029,CST-1368DR,6789,9502,15213,0.105,551
2020-02-13T07:45:29,42.805,6.029,CST-1368DR,6789,9508,15222,0.102,551
2020-02-13T07:48:30,42.805,6.029,CST-1368DR,6788,9496,15206,0.106,551
2020-02-13T07:51:32,42.805,6.029,CST-1368DR,6788,9505,15220,0.103,551
2020-02-13T07:54:33,42.805,6.029,CST-1368DR,6788,9508,15224,0.102,551
2020-02-13T07:57:35,42.805,6.029,CST-1368DR,6788,9506,15221,0.102,551
2020-02-13T08:00:37,42.805,6.029,CST-1368DR,6788,9500,15212,0.105,551
2020-02-13T08:03:38,42.805,6.029,CST-1368DR,6788,9505,15220,0.103,551
2020-02-13T08:06:40,42.805,6.029,CST-1368DR,6788,9498,15208,0.106,550
2020-02-13T08:09:42,42.805,6.029,CST-1368DR,6788,9503,15217,0.104,551
2020-02-13T08:12:43,42.805,6.029,CST-1368DR,6788,9501,15213,0.105,551
2020-02-13T08:15:45,42.805,6.029,CST-1368DR,6788,9505,15220,0.103,551
2020-02-13T08:18:47,42.805,6.029,CST-1368DR,6788,9507,15223,0.102,551
2020-02-13T08:21:48,42.805,6.029,CST-1368DR,6788,9493,15200,0.108,551
2020-02-13T08:24:50,42.805,6.029,CST-1368DR,6788,9507,15224,0.102,551
2020-02-13T08:27:51,42.805,6.029,CST-1368DR,6788,9502,15215,0.104,551
2020-02-13T08:30:54,42.805,6.029,CST-1368DR,6788,9503,15216,0.104,550
2020-02-13T08:33:55,42.805,6.029,CST-1368DR,6788,9504,15218,0.103,551
2020-02-13T08:36:57,42.805,6.029,CST-1368DR,6788,9505,15220,0.103,550
2020-02-13T08:39:59,42.805,6.029,CST-1368DR,6788,9502,15216,0.104,551
2020-02-13T08:43:00,42.805,6.029,CST-1368DR,6788,9499,15211,0.105,551
2020-02-13T08:46:02,42.805,6.029,CST-1368DR,6787,9505,15221,0.102,550
2020-02-13T08:49:04,42.805,6.029,CST-1368DR,6787,9505,15222,0.102,551
2020-02-13T08:52:05,42.805,6.029,CST-1368DR,6787,9485,15190,0.111,551
2020-02-13T08:55:07,42.805,6.029,CST-1368DR,6787,9489,15196,0.109,550
2020-02-13T08:58:09,42.805,6.029,CST-1368DR,6787,9488,15195,0.109,551
2020-02-13T09:01:10,42.805,6.029,CST-1368DR,6787,9485,15190,0.111,551
2020-02-13T09:04:12,42.805,6.029,CST-1368DR,6787,9480,15182,0.113,551
2020-02-13T09:07:14,42.805,6.029,CST-1368DR,6787,9474,15173,0.115,551
2020-02-13T09:10:15,42.805,6.029,CST-1368DR,6787,9479,15180,0.113,551
2020-02-13T09:13:18,42.805,6.029,CST-1368DR,6787,9478,15179,0.114,551
2020-02-13T09:16:19,42.805,6.029,CST-1368DR,6787,9476,15175,0.115,551
2020-02-13T09:19:22,42.805,6.029,CST-1368DR,6787,9481,15183,0.112,551
2020-02-13T09:22:23,42.805,6.029,CST-1368DR,6787,9458,15147,0.122,551
2020-02-13T09:25:25,42.805,6.029,CST-1368DR,6787,9477,15177,0.114,551
2020-02-13T09:28:26,42.805,6.029,CST-1368DR,6787,9474,15172,0.115,551
2020-02-13T09:31:28,42.805,6.029,CST-1368DR,6787,9477,15177,0.114,551
2020-02-13T09:34:30,42.805,6.029,CST-1368DR,6788,9482,15184,0.112,551
2020-02-13T09:37:31,42.805,6.029,CST-1368DR,6787,9469,15165,0.117,550
2020-02-13T09:40:33,42.805,6.029,CST-1368DR,6788,9469,15162,0.118,551
2020-02-13T09:43:35,42.805,6.029,CST-1368DR,6788,9473,15168,0.116,551
2020-02-13T09:46:37,42.805,6.029,CST-1368DR,6788,9472,15168,0.116,551
2020-02-13T09:49:38,42.805,6.029,CST-1368DR,6788,9475,15172,0.115,551
2020-02-13T09:52:40,42.805,6.029,CST-1368DR,6788,9478,15176,0.114,551
2020-02-13T09:55:41,42.805,6.029,CST-1368DR,6787,9473,15170,0.116,551
2020-02-13T09:58:43,42.805,6.029,CST-1368DR,6788,9475,15172,0.115,551
2020-02-13T10:01:45,42.805,6.029,CST-1368DR,6788,9486,15190,0.111,551
2020-02-13T10:04:46,42.805,6.029,CST-1368DR,6788,9492,15198,0.109,551
2020-02-13T10:07:48,42.805,6.029,CST-1368DR,6788,9473,15168,0.116,551
2020-02-13T10:10:50,42.805,6.029,CST-1368DR,6788,9475,15172,0.115,551
2020-02-13T10:13:51,42.805,6.029,CST-1368DR,6788,9475,15172,0.115,551
2020-02-13T10:16:53,42.805,6.029,CST-1368DR,6787,9474,15172,0.115,551
2020-02-13T10:19:55,42.805,6.029,CST-1368DR,6787,9468,15162,0.118,551
2020-02-13T10:22:56,42.805,6.029,CST-1368DR,6788,9471,15165,0.117,551
2020-02-13T10:25:58,42.805,6.029,CST-1368DR,6788,9473,15168,0.116,551
2020-02-13T10:29:00,42.805,6.029,CST-1368DR,6788,9471,15166,0.117,551
2020-02-13T10:32:01,42.805,6.029,CST-1368DR,6787,9475,15174,0.115,551
2020-02-13T10:35:03,42.805,6.029,CST-1368DR,6788,9478,15177,0.114,551
2020-02-13T10:38:05,42.805,6.029,CST-1368DR,6787,9476,15175,0.115,551
2020-02-13T10:41:06,42.805,6.029,CST-1368DR,6788,9482,15183,0.112,551
2020-02-13T10:44:08,42.805,6.029,CST-1368DR,6788,9482,15184,0.112,551
2020-02-13T10:47:10,42.805,6.029,CST-1368DR,6788,9478,15176,0.114,550
2020-02-13T10:50:11,42.805,6.029,CST-1368DR,6788,9490,15195,0.109,551
2020-02-13T10:53:13,42.805,6.029,CST-1368DR,6787,9468,15162,0.118,551
2020-02-13T10:56:15,42.805,6.029,CST-1368DR,6788,9490,15195,0.109,551
2020-02-13T10:59:16,42.805,6.029,CST-1368DR,6787,9475,15174,0.115,551
2020-02-13T11:02:18,42.805,6.029,CST-1368DR,6787,9474,15173,0.115,551
2020-02-13T11:05:19,42.805,6.029,CST-1368DR,6788,9487,15192,0.110,551
2020-02-13T11:08:21,42.805,6.029,CST-1368DR,6788,9503,15216,0.104,551
2020-02-13T11:11:23,42.805,6.029,CST-1368DR,6787,9474,15172,0.115,551
2020-02-13T11:14:24,42.805,6.029,CST-1368DR,6788,9507,15222,0.102,551
2020-02-13T11:17:26,42.805,6.029,CST-1368DR,6788,9492,15199,0.108,550
2020-02-13T11:20:28,42.805,6.029,CST-1368DR,6788,9501,15213,0.105,551
2020-02-13T11:23:29,42.805,6.029,CST-1368DR,6788,9503,15217,0.104,551
2020-02-13T11:26:31,42.805,6.029,CST-1368DR,6788,9485,15188,0.111,551
2020-02-13T11:29:33,42.805,6.029,CST-1368DR,6788,9500,15211,0.105,551
2020-02-13T11:32:34,42.805,6.029,CST-1368DR,6788,9504,15219,0.103,551
2020-02-13T11:35:36,42.805,6.029,CST-1368DR,6787,9479,15180,0.113,551
2020-02-13T11:38:37,42.805,6.029,CST-1368DR,6788,9490,15195,0.109,551
2020-02-13T11:41:39,42.805,6.029,CST-1368DR,6788,9489,15194,0.110,551
2020-02-13T11:44:41,42.805,6.029,CST-1368DR,6787,9493,15202,0.107,551
2020-02-13T11:47:42,42.805,6.029,CST-1368DR,6787,9502,15216,0.104,551
2020-02-13T11:50:44,42.805,6.029,CST-1368DR,6787,9481,15184,0.112,550
2020-02-13T11:53:46,42.805,6.029,CST-1368DR,6787,9502,15218,0.103,551
2020-02-13T11:56:47,42.805,6.029,CST-1368DR,6788,9506,15221,0.102,551
2020-02-13T11:59:49,42.805,6.029,CST-1368DR,6787,9498,15210,0.105,551
2020-02-13T12:02:51,42.805,6.029,CST-1368DR,6787,9485,15190,0.111,551
2020-02-13T12:05:52,42.805,6.029,CST-1368DR,6788,9506,15221,0.102,551
2020-02-13T12:08:54,42.805,6.029,CST-1368DR,6787,9506,15223,0.102,551
2020-02-13T12:11:55,42.805,6.029,CST-1368DR,6787,9501,15215,0.104,551
2020-02-13T12:14:57,42.805,6.029,CST-1368DR,6787,9506,15223,0.102,551
2020-02-13T12:17:59,42.805,6.029,CST-1368DR,6788,9504,15218,0.103,551
2020-02-13T12:21:00,42.805,6.029,CST-1368DR,6787,9504,15220,0.103,551
2020-02-13T12:24:02,42.805,6.029,CST-1368DR,6787,9500,15214,0.104,551
2020-02-13T12:27:04,42.805,6.029,CST-1368DR,6787,9502,15217,0.104,551
2020-02-13T12:30:05,42.805,6.029,CST-1368DR,6787,9507,15226,0.101,551
2020-02-13T12:33:07,42.805,6.029,CST-1368DR,6787,9471,15168,0.116,551
2020-02-13T12:36:09,42.805,6.029,CST-1368DR,6787,9506,15223,0.102,551
2020-02-13T12:39:10,42.805,6.029,CST-1368DR,6787,9505,15222,0.102,551
2020-02-13T12:42:12,42.805,6.029,CST-1368DR,6787,9504,15220,0.103,551
2020-02-13T12:45:14,42.805,6.029,CST-1368DR,6787,9504,15220,0.103,551
2020-02-13T12:48:15,42.805,6.029,CST-1368DR,6787,9503,15219,0.103,551
2020-02-13T12:51:17,42.805,6.029,CST-1368DR,6787,9507,15225,0.101,551
2020-02-13T12:54:19,42.805,6.029,CST-1368DR,6787,9502,15217,0.104,551
2020-02-13T12:57:20,42.805,6.029,CST-1368DR,6787,9505,15222,0.102,551
2020-02-13T13:00:22,42.805,6.029,CST-1368DR,6787,9507,15224,0.102,551
2020-02-13T13:03:23,42.805,6.029,CST-1368DR,6787,9498,15210,0.105,551
2020-02-13T13:06:25,42.805,6.029,CST-1368DR,6787,9504,15221,0.102,551
2020-02-13T13:09:27,42.805,6.029,CST-1368DR,6787,9506,15223,0.102,551
2020-02-13T13:12:28,42.805,6.029,CST-1368DR,6787,9504,15220,0.103,551
2020-02-13T13:15:30,42.805,6.029,CST-1368DR,6787,9504,15221,0.102,551
2020-02-13T13:18:32,42.805,6.029,CST-1368DR,6787,9504,15220,0.103,551
2020-02-13T13:21:33,42.805,6.029,CST-1368DR,6787,9505,15222,0.102,551
2020-02-13T13:24:35,42.805,6.029,CST-1368DR,6787,9508,15226,0.101,551
2020-02-13T13:27:37,42.805,6.029,CST-1368DR,6787,9505,15222,0.102,551
2020-02-13T13:30:38,42.805,6.029,CST-1368DR,6787,9507,15225,0.101,551
2020-02-13T13:33:40,42.805,6.029,CST-1368DR,6787,9505,15222,0.102,551
2020-02-13T13:36:41,42.805,6.029,CST-1368DR,6787,9505,15221,0.102,551
2020-02-13T13:39:43,42.805,6.029,CST-1368DR,6787,9503,15218,0.103,551
2020-02-13T13:42:45,42.805,6.029,CST-1368DR,6787,9501,15215,0.104,551
2020-02-13T13:45:46,42.805,6.029,CST-1368DR,6787,9503,15218,0.103,551
2020-02-13T13:48:48,42.805,6.029,CST-1368DR,6787,9506,15223,0.102,551
2020-02-13T13:51:50,42.805,6.029,CST-1368DR,6787,9499,15213,0.105,551
2020-02-13T13:54:51,42.805,6.029,CST-1368DR,6787,9502,15216,0.104,551
2020-02-13T13:57:53,42.805,6.029,CST-1368DR,6787,9501,15216,0.104,551
2020-02-13T14:00:55,42.805,6.029,CST-1368DR,6787,9504,15220,0.103,551
2020-02-13T14:03:57,42.805,6.029,CST-1368DR,6787,9504,15220,0.103,551
2020-02-13T14:06:59,42.805,6.029,CST-1368DR,6787,9502,15216,0.104,551
2020-02-13T14:10:00,42.805,6.029,CST-1368DR,6787,9504,15220,0.103,551
2020-02-13T14:13:02,42.805,6.029,CST-1368DR,6787,9502,15217,0.104,551
2020-02-13T14:16:03,42.805,6.029,CST-1368DR,6787,9503,15218,0.103,551
2020-02-13T14:19:05,42.805,6.029,CST-1368DR,6787,9505,15222,0.102,551
2020-02-13T14:22:07,42.805,6.029,CST-1368DR,6787,9505,15221,0.102,551
2020-02-13T14:25:09,42.805,6.029,CST-1368DR,6787,9506,15223,0.102,551
2020-02-13T14:28:10,42.805,6.029,CST-1368DR,6787,9503,15218,0.103,551
2020-02-13T14:31:12,42.805,6.029,CST-1368DR,6787,9508,15227,0.101,551
2020-02-13T14:34:13,42.805,6.029,CST-1368DR,6787,9504,15220,0.103,551
2020-02-13T14:37:15,42.805,6.029,CST-1368DR,6787,9506,15224,0.102,551
2020-02-13T14:40:17,42.805,6.029,CST-1368DR,6787,9506,15223,0.102,551
2020-02-13T14:43:19,42.805,6.029,CST-1368DR,6787,9507,15226,0.101,551
2020-02-13T14:46:20,42.805,6.029,CST-1368DR,6787,9508,15227,0.101,551
2020-02-13T14:49:22,42.805,6.029,CST-1368DR,6787,9509,15228,0.101,551
2020-02-13T14:52:24,42.805,6.029,CST-1368DR,6787,9508,15226,0.101,551
2020-02-13T14:55:25,42.805,6.029,CST-1368DR,6787,9502,15216,0.104,551
2020-02-13T14:58:27,42.805,6.029,CST-1368DR,6787,9505,15221,0.102,551
2020-02-13T15:01:29,42.805,6.029,CST-1368DR,6787,9502,15217,0.104,551
2020-02-13T15:04:30,42.805,6.029,CST-1368DR,6787,9507,15224,0.102,551
2020-02-13T15:07:32,42.805,6.029,CST-1368DR,6787,9505,15222,0.102,551
2020-02-13T15:10:34,42.805,6.029,CST-1368DR,6787,9509,15228,0.101,551
2020-02-13T15:13:35,42.805,6.029,CST-1368DR,6787,9505,15222,0.102,551
2020-02-13T15:16:37,42.805,6.029,CST-1368DR,6787,9507,15224,0.102,551
2020-02-13T15:19:39,42.805,6.029,CST-1368DR,6787,9507,15225,0.101,551
2020-02-13T15:22:40,42.805,6.029,CST-1368DR,6787,9505,15221,0.102,551
2020-02-13T15:25:42,42.805,6.029,CST-1368DR,6787,9509,15228,0.101,551
2020-02-13T15:28:44,42.805,6.029,CST-1368DR,6787,9501,15215,0.104,550
2020-02-13T15:31:45,42.805,6.029,CST-1368DR,6787,9505,15222,0.102,551
2020-02-13T15:34:47,42.805,6.029,CST-1368DR,6787,9508,15227,0.101,551
2020-02-13T15:37:49,42.805,6.029,CST-1368DR,6787,9507,15225,0.101,551
2020-02-13T15:40:50,42.805,6.029,CST-1368DR,6787,9506,15223,0.102,551
2020-02-13T15:43:52,42.805,6.029,CST-1368DR,6787,9506,15223,0.102,551
2020-02-13T15:46:53,42.805,6.029,CST-1368DR,6787,9506,15223,0.102,550
2020-02-13T15:49:55,42.805,6.029,CST-1368DR,6787,9509,15228,0.101,551
2020-02-13T15:52:57,42.805,6.029,CST-1368DR,6787,9508,15226,0.101,551
2020-02-13T15:55:58,42.805,6.029,CST-1368DR,6787,9508,15226,0.101,551
2020-02-13T15:59:00,42.805,6.029,CST-1368DR,6787,9507,15224,0.102,551
2020-02-13T16:02:02,42.805,6.029,CST-1368DR,6787,9508,15226,0.101,551
2020-02-13T16:05:03,42.805,6.029,CST-1368DR,6787,9507,15226,0.101,551
2020-02-13T16:08:05,42.805,6.029,CST-1368DR,6787,9506,15224,0.102,551
2020-02-13T16:11:06,42.805,6.029,CST-1368DR,6787,9507,15225,0.101,551
2020-02-13T16:14:08,42.805,6.029,CST-1368DR,6787,9508,15226,0.101,551
2020-02-13T16:17:10,42.805,6.029,CST-1368DR,6787,9507,15224,0.102,551
2020-02-13T16:20:11,42.805,6.029,CST-1368DR,6787,9506,15224,0.102,551
2020-02-13T16:23:13,42.805,6.029,CST-1368DR,6786,9506,15225,0.101,551
2020-02-13T16:26:15,42.805,6.029,CST-1368DR,6786,9508,15229,0.100,551
2020-02-13T16:29:16,42.805,6.029,CST-1368DR,6787,9505,15222,0.102,551
2020-02-13T16:32:18,42.805,6.029,CST-1368DR,6787,9508,15227,0.101,551
2020-02-13T16:35:19,42.805,6.029,CST-1368DR,6786,9507,15228,0.101,551
2020-02-13T16:38:21,42.805,6.029,CST-1368DR,6786,9507,15227,0.101,551
2020-02-13T16:41:23,42.805,6.029,CST-1368DR,6786,9507,15227,0.101,551
2020-02-13T16:44:24,42.805,6.029,CST-1368DR,6786,9507,15227,0.101,551
2020-02-13T16:47:26,42.805,6.029,CST-1368DR,6786,9509,15230,0.100,551
2020-02-13T16:50:28,42.805,6.029,CST-1368DR,6786,9507,15228,0.101,551
2020-02-13T16:53:29,42.805,6.029,CST-1368DR,6787,9506,15223,0.102,551